Location: Asheville, NC
(35.6000°N, 82.5500°W)
Time: 18:59:07
(UTC-04:00)

XW-2D - Pass Details

Date: 07 January 2018
Orbit: 511 x 529 km, 97.5° (Epoch: 23 April)

Event Time Altitude Azimuth Distance (km) Brightness Sun altitude
Rises 18:55:19 0° 211° (SSW) 2,652 ? -16.4°
Reaches altitude 10° 18:58:30 10° 240° (WSW) 1,771 ? -17.0°
Maximum altitude 19:00:13 13° 267° (W) 1,609 ? -17.3°
Drops below altitude 10° 19:01:57 10° 294° (WNW) 1,777 ? -17.7°
Sets 19:05:10 0° 324° (NW) 2,672 ? -18.3°
